"Pseudo-MPEC" for P11Xos9

Created 2024 Sep 5 17:22:20 UT using Find_Orb

Click here for an explanation of pseudo-MPECs

 
 Astrometry: 
     P11Xos9* C2024 08 16.59663300 27 55.312+43 07 16.71   ~8GI7 21.95wXNEOCPF51
     P11Xos9  C2024 08 16.60334600 27 55.960+43 07 32.62   ~8GI7 22.48wXNEOCPF51
     P11Xos9  C2024 08 16.61005000 27 56.613+43 07 48.90   ~8GI7 21.85wXNEOCPF51
     P11Xos9  C2024 08 16.61676000 27 57.250+43 08 05.00   ~8GI7 21.60wXNEOCPF51

Station data:
(F51) Pan-STARRS 1, Haleakala  (N20.707234 W156.255910)  US/Hawaii.
   Observers J. Bulger, T. Lowe, A. Schultz, M. Willman. Measurers K.
   Chambers, S. Chastel, T. de Boer, L. Denneau, J. Fairlamb, H. Flewelling,
   M. Huber, C.-C. Lin, E. Magnier, Y. Ramanjooloo, R. Wainscoat, R. Weryk.
   1.8-m Ritchey-Chrétien + CCD.

Orbital elements:  P11Xos9
   Perihelion 2024 Nov 26.57892 +/- 33 TT = 13:53:38 (JD 2460641.07892)
Epoch 2024 Aug 17.0 TT = JDT 2460539.5   Earth MOID: 0.0467   Ma: 0.0372
M 287.82194527 +/- 43               (J2000 ecliptic)             AutoNEOCP
n   0.71056137 +/- 0.547            Peri.  173.68697 +/- 100
a   1.24375541 +/- 0.638            Node   255.86316 +/- 56
e   0.1709251 +/- 0.237             Incl.   11.08881 +/- 27
P   1.387/506.632d         H 21.58  G  0.15   U 12.3  SR
q 1.03116632 +/- 0.397    Q 1.45634451 +/- 28.1
From 4 observations 2024 Aug. 16 (29.0 min); mean residual 0".07
Residuals in arcseconds: 
240816 F51  .02-  .09+    240816 F51  .07+  .03+    
240816 F51  .00   .15-    240816 F51  .05-  .03+    

Ephemerides (geocentric):
Date (UTC) HH   RA             Dec           delta  r     elong  mag " sig PA
---- --------  ------------   ------------  ------ ------ -----  --- --------
2024 09 05 17  01 09 39.258   +56 35 27.13  .31649 1.1614 111.4 21.4  55d  44
2024 09 05 18  01 09 45.548   +56 37 04.52  .31635 1.1613 111.4 21.4  55d  44
2024 09 05 19  01 09 51.846   +56 38 41.88  .31621 1.1612 111.3 21.4  55d  44
2024 09 05 20  01 09 58.150   +56 40 19.23  .31607 1.1611 111.3 21.4  55d  44
2024 09 05 21  01 10 04.461   +56 41 56.55  .31594 1.1610 111.3 21.4  55d  44
2024 09 05 22  01 10 10.780   +56 43 33.85  .31580 1.1608 111.3 21.4  55d  44
2024 09 05 23  01 10 17.106   +56 45 11.12  .31566 1.1607 111.3 21.4  55d  44
2024 09 06 00  01 10 23.439   +56 46 48.37  .31552 1.1606 111.3 21.4  55d  44
2024 09 06 01  01 10 29.779   +56 48 25.60  .31538 1.1605 111.3 21.4  55d  44
2024 09 06 02  01 10 36.126   +56 50 02.81  .31525 1.1604 111.3 21.4  55d  44
2024 09 06 03  01 10 42.481   +56 51 39.99  .31511 1.1603 111.3 21.4  55d  44
2024 09 06 04  01 10 48.842   +56 53 17.15  .31497 1.1602 111.3 21.4  55d  44
2024 09 06 05  01 10 55.211   +56 54 54.29  .31483 1.1601 111.3 21.4  55d  44
2024 09 06 06  01 11 01.588   +56 56 31.40  .31469 1.1600 111.3 21.4  55d  44
2024 09 06 07  01 11 07.972   +56 58 08.49  .31456 1.1599 111.3 21.4  55d  44
2024 09 06 08  01 11 14.363   +56 59 45.55  .31442 1.1598 111.3 21.4  55d  44
2024 09 06 09  01 11 20.761   +57 01 22.60  .31428 1.1597 111.3 21.4  55d  44
2024 09 06 10  01 11 27.167   +57 02 59.62  .31414 1.1595 111.3 21.4  55d  43
2024 09 06 11  01 11 33.580   +57 04 36.61  .31401 1.1594 111.3 21.4  55d  43
2024 09 06 12  01 11 40.001   +57 06 13.58  .31387 1.1593 111.3 21.4  55d  43
2024 09 06 13  01 11 46.429   +57 07 50.53  .31373 1.1592 111.3 21.4  55d  43
2024 09 06 14  01 11 52.865   +57 09 27.46  .31359 1.1591 111.3 21.4  55d  43
2024 09 06 15  01 11 59.308   +57 11 04.36  .31346 1.1590 111.3 21.4  55d  43
2024 09 06 16  01 12 05.759   +57 12 41.23  .31332 1.1589 111.3 21.4  55d  43
2024 09 06 17  01 12 12.218   +57 14 18.08  .31318 1.1588 111.3 21.4  55d  43
2024 09 06 18  01 12 18.684   +57 15 54.91  .31305 1.1587 111.3 21.4  55d  43
2024 09 06 19  01 12 25.157   +57 17 31.72  .31291 1.1586 111.3 21.4  55d  43
2024 09 06 20  01 12 31.638   +57 19 08.50  .31277 1.1585 111.3 21.4  55d  43
2024 09 06 21  01 12 38.127   +57 20 45.25  .31264 1.1584 111.2 21.4  55d  43
2024 09 06 22  01 12 44.624   +57 22 21.98  .31250 1.1582 111.2 21.4  55d  43
2024 09 06 23  01 12 51.128   +57 23 58.69  .31236 1.1581 111.2 21.4  55d  43
2024 09 07 00  01 12 57.640   +57 25 35.37  .31222 1.1580 111.2 21.4  55d  43
2024 09 07 01  01 13 04.160   +57 27 12.03  .31209 1.1579 111.2 21.4  55d  43
2024 09 07 02  01 13 10.687   +57 28 48.66  .31195 1.1578 111.2 21.4  55d  43
2024 09 07 03  01 13 17.223   +57 30 25.27  .31181 1.1577 111.2 21.4  55d  43
2024 09 07 04  01 13 23.766   +57 32 01.86  .31168 1.1576 111.2 21.4  55d  43
2024 09 07 05  01 13 30.317   +57 33 38.41  .31154 1.1575 111.2 21.4  55d  43
2024 09 07 06  01 13 36.876   +57 35 14.95  .31140 1.1574 111.2 21.3  55d  43
2024 09 07 07  01 13 43.443   +57 36 51.46  .31127 1.1573 111.2 21.3  55d  43
2024 09 07 08  01 13 50.018   +57 38 27.94  .31113 1.1572 111.2 21.3  55d  43
2024 09 07 09  01 13 56.600   +57 40 04.40  .31100 1.1571 111.2 21.3  55d  43
2024 09 07 10  01 14 03.191   +57 41 40.84  .31086 1.1570 111.2 21.3  55d  42
2024 09 07 11  01 14 09.790   +57 43 17.24  .31072 1.1568 111.2 21.3  55d  42
2024 09 07 12  01 14 16.396   +57 44 53.63  .31059 1.1567 111.2 21.3  55d  42
2024 09 07 13  01 14 23.011   +57 46 29.99  .31045 1.1566 111.2 21.3  55d  42
2024 09 07 14  01 14 29.634   +57 48 06.32  .31031 1.1565 111.2 21.3  55d  42
2024 09 07 15  01 14 36.265   +57 49 42.63  .31018 1.1564 111.2 21.3  55d  42
2024 09 07 16  01 14 42.904   +57 51 18.91  .31004 1.1563 111.2 21.3  55d  42